Regional Weather Roundup
Issued by NWS

Home | Current Version | Previous Version | Graphics & Text | Print | Product List | Glossary On
Versions: 1 2 3 4 5 6 7 8 9 10 11 12 13 14 15 16 17 18 19 20 21 22 23 24 25 26 27 28 29 30 31 32 33 34 35 36 37 38 39 40 41 42 43 44 45 46 47 48 49 50
000
ASUS45 KSLC 240710
RWRUT

UTAH REGIONAL WEATHER ROUNDUP
NATIONAL WEATHER SERVICE SALT LAKE CITY UT
100 AM MDT FRI APR 24 2015

UTZ001>011-023>025-240800-

NORTHERN UTAH

CITY           SKY/WX    TMP DP  RH WIND       PRES   REMARKS
BRIGHAM CITY   MOCLDY    50  40  70 CALM      29.75S
HILL AFB       PTCLDY    51  37  58 E12       29.75S
LOGAN          MOCLDY    44  41  89 N8        29.75S
OGDEN          PTCLDY    52  38  58 S7        29.74S
PROVO AIRPORT  PTCLDY    50  34  53 SE9       29.75F
SALT LAKE CITY MOCLDY    52  38  58 VRB7      29.74R
VERNAL         MOCLDY    43  32  65 NW6       29.81S
WENDOVER       MOCLDY    54  34  47 W7        29.75S
HEBER CITY     PTCLDY    43  28  56 E3        29.80S
WEST JORDAN    PTCLDY    52  37  58 W7        29.75F

$$

UTZ012>022-026-027-240800-

SOUTHERN/CENTRAL UTAH

CITY           SKY/WX    TMP DP  RH WIND       PRES   REMARKS
BLANDING       PTCLDY    44  28  52 NE8       29.93F
BRYCE CANYON   PTCLDY    27  14  58 CALM      29.92S
CEDAR CITY     PTCLDY    43  25  49 S8        29.85S
DELTA          PTCLDY    48  22  35 S7        29.79S
HANKSVILLE     CLOUDY    54  21  28 N5        29.78S
MILFORD        PTCLDY    49  28  44 S12       29.81F
MOAB/CYNLANDS  MOCLDY    55  25  31 SE7       29.75S
PRICE          MOCLDY    46  21  37 NW5       29.80S
ST GEORGE      MOSUNNY   55  28  35 SE7       29.82S
KANAB          PTCLDY    39  28  65 CALM      29.91S

$$

REGIONAL REPORTS     COLORADO/ARIZONA

CITY           SKY/WX    TMP DP  RH WIND       PRES   REMARKS
CRAIG, CO      CLEAR     38  31  76 CALM      29.85F
GRAND JUNCTION PTCLDY    50  32  50 SE15      29.79S
RIFLE          CLEAR     47  30  51 E5        29.84S
MONTROSE       PTCLDY    44  29  55 SE10      29.86F
CORTEZ         CLEAR     49  28  44 S5        29.89S
PAGE, AZ       PTCLDY    60  26  27 W6        29.81S
GRAND CANYON   PTCLDY    29  20  69 CALM      29.95S
KINGMAN        CLEAR     44  39  82 SE8       29.85S
FLAGSTAFF      CLEAR     38  26  62 W5        29.94F WCI  34

$$

REGIONAL REPORTS    NEVADA/IDAHO/WYOMING

CITY           SKY/WX    TMP DP  RH WIND       PRES   REMARKS
LAS VEGAS, NV  PTCLDY    66  37  34 S15       29.73F
ELY            MOCLDY    40  27  59 SE7       29.84F
ELKO           CLEAR     40  34  79 CALM      29.77F
POCATELLO, ID  CLEAR     45  30  55 S8        29.73F
BURLEY         CLEAR     48  37  65 SW14      29.69F
EVANSTON, WY   MOCLDY    38  33  82 SE5       29.84F WCI  34
ROCK SPRINGS   PTCLDY    37  32  82 S12       29.82F WCI  29
KEMMERER       MOCLDY    36  34  93 E6        29.85F WCI  31

$$



USA.gov is the U.S. government's official web portal to all federal, state and local government web resources and services.